Regional Weather Roundup
Issued by NWS Burlington, VT

Home | Current Version | Previous Version | Text Only | Print | Product List | Glossary On
Versions: 1 2 3 4 5 6 7 8 9 10 11 12 13 14 15 16 17 18 19 20 21 22 23 24 25 26 27 28 29 30 31 32 33 34 35 36 37 38 39 40 41 42 43 44 45 46 47 48 49 50
000
ASUS41 KBTV 230630
RWRBTV
VERMONT REGIONAL WEATHER ROUNDUP
NATIONAL WEATHER SERVICE BURLINGTON VT
200 AM EDT SAT AUG 23 2014

NOTE: "FAIR" INDICATES FEW OR NO CLOUDS BELOW 12,000 FEET WITH NO
SIGNIFICANT WEATHER AND/OR OBSTRUCTIONS TO VISIBILITY.

* THESE REPORTS ARE NOT UNDER NWS QUALITY CONTROL AND/OR DO NOT
  REPORT WEATHER SUCH AS PRECIPITATION AND FOG.

VTZ001>019-230700-
_____VERMONT_____


CITY           SKY/WX    TMP DP  RH WIND       PRES   REMARKS
BURLINGTON     CLOUDY    63  60  90 CALM      30.12S
6HR MIN TEMP:  63; 6HR MAX TEMP:  66; 6HR PCP:  0.01;

MONTPELIER     CLOUDY    59  58  96 CALM      30.18F
6HR MIN TEMP:  58; 6HR MAX TEMP:  61; 6HR PCP:  0.02;

MORRISVILLE    CLOUDY    59  58  96 SE3       30.15F FOG
6HR MIN TEMP:  59; 6HR MAX TEMP:  62; 6HR PCP:  0.03;

ST. JOHNSBURY*   N/A     61  60  97 MISG      30.13S
6HR MIN TEMP:  60; 6HR MAX TEMP:  63;

MIDDLEBURY*    CLOUDY    62  61  97 SE3       30.12F
6HR MIN TEMP:  61; 6HR MAX TEMP:  63; 6HR PCP:  0.01;

RUTLAND*       CLOUDY    61  57  88 CALM      30.12F
6HR MIN TEMP:  61; 6HR MAX TEMP:  61; 6HR PCP:  0.01;

SPRINGFIELD    CLOUDY    60  59  96 CALM      30.14F
6HR MIN TEMP:  60; 6HR MAX TEMP:  63; 6HR PCP: TRACE;

HIGHGATE*      CLOUDY    61  59  96 CALM      30.12F
6HR MIN TEMP:  61; 6HR MAX TEMP:  65;

NEWPORT*       CLOUDY    57  57  99 CALM      30.15S FOG
6HR MIN TEMP:  59; 6HR MAX TEMP:  63;

BENNINGTON     CLOUDY    64  55  72 E6        30.10F
6HR MIN TEMP:  63; 6HR MAX TEMP:  65;

MT. MANSFIELD*   N/A     50 N/A N/A SE14        N/A

_____LAKE CHAMPLAIN_____


CITY           SKY/WX    TMP DP  RH WIND       PRES   REMARKS
BURTON ISLAND*   N/A     64  61  88 NE1         N/A
COLCHESTER RF*   N/A     64  64 100 S6          N/A
DIAMOND ISL*     N/A     63  63 100 S5          N/A

$$

NYZ007-026>031-035-052-083-230700-
_____NORTHERN NEW YORK_____


CITY           SKY/WX    TMP DP  RH WIND       PRES   REMARKS
PLATTSBURGH    CLOUDY    61  60  97 CALM      30.11S
6HR MIN TEMP:  61; 6HR MAX TEMP:  64;

SARANAC LAKE   CLOUDY    57  56  96 CALM      30.10F
6HR MIN TEMP:  57; 6HR MAX TEMP:  63; 6HR PCP: TRACE;

MASSENA        CLOUDY    64  61  90 NE3       30.09F
6HR MIN TEMP:  64; 6HR MAX TEMP:  68; 6HR PCP: TRACE;

OGDENSBURG*    CLOUDY    64  61  88 CALM      30.07S
WATERTOWN      CLOUDY    65  59  81 NE6       30.03F
6HR MIN TEMP:  64; 6HR MAX TEMP:  71;

FT DRUM        CLOUDY    64  57  77 SE13      30.04F
ALBANY         CLOUDY    64  62  93 N3        30.09F
6HR MIN TEMP:  64; 6HR MAX TEMP:  66; 6HR PCP: TRACE;


$$
NHZ002-005-011-230700-
_____NEW HAMPSHIRE_____


CITY           SKY/WX    TMP DP  RH WIND       PRES   REMARKS
LEBANON        CLOUDY    61  58  90 CALM      30.13F FOG
6HR MIN TEMP:  61; 6HR MAX TEMP:  62; 6HR PCP: TRACE;

KEENE          CLOUDY    61  55  82 CALM      30.13S
6HR MIN TEMP:  61; 6HR MAX TEMP:  64;

MT WASHINGTON  FOG       41  41 100 E14         N/A  VSB 1/16
6HR MIN TEMP:  41; 6HR MAX TEMP:  47; 6HR PCP:  0.03;

PLYMOUTH       CLOUDY    59  59 100 CALM      30.13F FOG
6HR MIN TEMP:  59; 6HR MAX TEMP:  62; 6HR PCP:  0.01;

WHITEFIELD     CLOUDY    61  59  93 CALM      30.15S
6HR MIN TEMP:  61; 6HR MAX TEMP:  65;


$$

_____REGIONAL QUEBEC LOCATIONS_____


CITY           SKY/WX    TMP DP  RH WIND       PRES   REMARKS
MONTREAL       PTCLDY    63  59  88 E3        30.12S
QUEBEC CITY    PTCLDY    59  55  88 N2        30.16S
SHERBROOKE     CLEAR     54  54 100 E2        30.15S FOG

_____REGIONAL ONTARIO LOCATIONS_____


CITY           SKY/WX    TMP DP  RH WIND       PRES   REMARKS
OTTAWA         CLOUDY    63  61  94 E8        30.09S

______KEY______
VSB  - VISIBILITY IN MILES
WCI  - WIND CHILL INDEX
HX   - HEAT INDEX
$$
NNNN


USA.gov is the U.S. government's official web portal to all federal, state and local government web resources and services.